Погода Троицко-Печерск

Погода Троицко-Печерск : погода сейчас, прогноз погоды и архив. Всё, что Вы хотите узнать о погоде Троицко-Печерск!

Хотите узнать прогноз погоды Троицко-Печерск? Тогда Вам сюда: Погода Троицко-Печерск

Поиск расширенной информации на нашем сайте:

Другие новости

Новости СМИ2

Главная страница сайта

Новости сайта

03.07.2017

Напоминаем, что на нашем специализированном сайте Метеоцентр.Азия вы можете получить высокодетализированные автоматические прогнозы погоды по пунктам России, СНГ и мира в авиационном формате (включающие направление и скорость ветра, видимость, явления погоды, количество и форму облачности, нижнюю и верхнюю границу облачности).

Рекомендуем: Заказать где купить постельное белье.

Погода Троицко-Печерск - сегодня

Время (UTC), дата Ветер
(°,м/с) 
Видим.   Явления Облачность Т
(°С)
Тd
(°С)
f(%) Тe
(°С)
Pmin
(гПа)
dP
(гПа)
Po
(мм)
O2
(г/м3)
Тmin Tmax R s Состояние
почвы
18 20.08.17 230 (ЮЗ) 20000 м    3/0 средняя, верхняя 
[Ac trans|Ci fib]
+16.3 +13.9 86 +24  1017.2  0.1  751  283           
21 20.08.17 210 (ЮЗ) 20000 м    ясно 
+15 +13.8 93 +23  1016.9  -0.3  751  284           
00 21.08.17 200 (Ю) 20000 м    8/3 300 м кучево-дожд., верхняя 
[Cb cap|Ci]
+14.6 +13.6 94 +21  1016  -0.9  750  284           
03 21.08.17 230 (ЮЗ) 10 км    8/0 средняя, верхняя 
[Ac trans|Cs]
+17.2 +15.6 90 +28  1015.8  750  281  +14.5        влажная 
06 21.08.17 250 (З) 20000 м    3/3 600 м средняя, верхняя 
[As op|Cs]
+24 +17.8 68 +38  1015.7  0.3  750  274           
09 21.08.17 300 (СЗ) 20000 м    6/5 600 м верхняя 
[Cu med, cong|Cs]
+26.1 +15.7 53 +36  1016.4  0.7  751  273           
12 21.08.17 290 (З) 20000 м    6/4 600 м верхняя 
[Cu med, cong|Cs]
+26.4 +14.1 47 +34  1017.1  0.7  751  273           
15 21.08.17 260 (З) 20000 м    1/0 верхняя 
[Ci fib]
+21.6 +15.9 70 +32  1018  0.7  752  277    +26.9       
18 21.08.17 260 (З) 20000 м    8/0 средняя, верхняя 
[Ac As|Cs]
+18.8 +15.4 81 +29  1019.2  752  280           
21 21.08.17 240 (ЮЗ) 20000 м    3/0 средняя, верхняя 
[Ac trans|Cs]
+19.1 +15.9 82 +31  1019.6  0.5  753  280           
00 22.08.17 260 (З) 20000 м    5/0 средняя, верхняя 
[Ac cast|Cs]
+17.8 +15.7 88 +29  1020.8  1.1  754  282           
03 22.08.17 230 (ЮЗ) 10 км    9/3 600 м кучево-дожд., средняя, верхняя 
[Cb cap|Ac cast|Cs]
+19.5 +16.4 82 +32  1022.4  1.3  755  280  +16.7        влажная 
06 22.08.17 250 (З) 10 км    3/0 верхняя 
[Cs]
+24.1 +16.4 62 +35  1022.5  0.7  755  276           
09 22.08.17 210 (ЮЗ) 20000 м    ясно 
+28.5 +11.3 34 +31  1021.8  -0.5  755  273           
12 22.08.17 200 (Ю) 20000 м    ясно 
+28.4 +10.6 33 +30  1021.4  -0.4  754  273           
15 22.08.17 210 (ЮЗ) 20000 м    6/0 средняя 
[Ac cast]
+23.9 +14.1 54 +31  1020.8  -0.8  754  276    +29.7       
18 22.08.17 210 (ЮЗ) 20000 м    8/0 верхняя 
[Ci fib]
+19.6 +13.3 67 +27  1020.8  -0.3  754  281           
21 22.08.17 270 (З) 10 км  гроза, ливневой дождь  10/8 500 м кучево-дожд., средняя 
[Cb cap|Ac As]
+18.7 +15.6 82 +29  1021.4  0.6  754  281           
00 23.08.17 220 (ЮЗ) 2{11}  20000 м  {гроза, ливн. осадки}  8/3 300 м кучево-дожд., средняя 
[Cb cap|Ac und]
+16.9 +15.7 93 +28  1020.7  -0.8  753  283           
03 23.08.17 230 (ЮЗ) 20000 м    8/0 средняя, верхняя 
[Ac und|Cs]
+18.3 +16.6 90 +30  1021  0.5  754  281  +16.4    12    влажная 
06 23.08.17 230 (ЮЗ) 20000 м    3/0 верхняя 
[Ci fib]
+24 +17.8 68 +38  1020.9  0.2  754  275           
09 23.08.17 220 (ЮЗ) 20000 м    3/3 600 м верхняя 
[Cu med, cong|Cs]
+27.3 +14.1 44 +34  1020.6  -0.2  754  273           
12 23.08.17 210 (ЮЗ) 20000 м    4/0 верхняя 
[Cu med, cong|Cs]
+27.6 +13.7 42 +34  1019.7  -0.2  753  273           
15 23.08.17 260 (З) 20000 м    9/8 540 м кучево-дожд., средняя, верхняя 
[Cb cap|Ac As|Cs]
+23 +17.4 71 +36  1019.2  -0.7  753  276    +27.9       
18 23.08.17 200 (Ю) 10 км    8/0 средняя, верхняя 
[Ac As|Ci fib]
+19.1 +16.8 87 +33  1019.7  0.4  753  280           
Время (UTC), дата Ветер
(°,м/с) 
Видим.   Явления Облачность Т
(°С)
Тd
(°С)
f(%) Тe
(°С)
Pmin
(гПа)
dP
(гПа)
Po
(мм)
O2
(г/м3)
Тmin Tmax R s Состояние
почвы

Для получения пояснительной информации подведите курсор к названию столбца.

ПОГОДА Троицко-Печерск - архив

Всё, что Вы хотите узнать о погоде Троицко-Печерск - удобно и подробно!

Выберите нужную дату (начиная с 1 января 2015* года) и нажмите кнопку "Найти".
Будут отображены архивные сводки погоды по пункту Троицко-Печерск, начиная с указанной даты.


Отображать данные в формате CSV (для использования в таблицах Excel)


Внимание! Наш архив погоды предназначен исключительно для личного некоммерческого использования в познавательных целях. Если Вам необходимы официальные справки о состоянии погоды (для производственных, юридических, коммерческих и т.п. целей), обращайтесь в органы Росгидромета.

*Примечание: данная дата относится к архиву по метеостанциям СССР (Россия, СНГ, Балтия).
Архив по метеостанциям Зарубежной Европы и Азии (кроме Китая) хранится 10 дней, по другим регионам земного шара (Китай, Африка, Америка, Австралия, Океания) - 1 день.

Троицко-Печерск - район местоположения метеостанции


Название, широта, долгота, высота метеостанции:
Троицко-Печерск 62.7°ш. 56.2°д. 139 м над ур. моря [Российская Федерация]

Дополнительная информация

В oтличие oт бoльшинства пoгoдных сайтoв мы публикуем пoдрoбную метеoинфoрмацию в детальнoм прoфессиoнальнoм фoрмате.

Характеристики температуры и влажнoсти вoздуха измеряются на высoте 2 м в тени вдали oт зданий и деревьев.
Скoрoсть ветра измеряется на высoте 10 м (на урoвне рoста челoвека скoрoсть ветра ниже в 1.5-2 раза). Если метеoстанция нахoдится в гoрoде или в лесу, тo скoрoсть ветра занижена на 2-4 м/с пo сравнению с oткрытым местoм. Скoрoсть ветра над акватoриями крупных рек и oзёр, а также на вершинах хoлмoв на 2-5 м/с выше, чем в oбычных услoвиях.
Атмoсфернoе давление в разных тoчках местнoсти мoжет значительнo oтличаться oт давления на метеoстанции, в зависимoсти oт услoвий рельефа (при пoдъёме на 10 м давление пoнижается примернo на 1 мм рт.ст.).